• In Uzbekistan
  • List of Countries
  • For 7 days
  • Water Temperature
  • Satellite Maps
  • Weather Map
  • Weather Widgets
  • user-avatar
    Login

    Hourly Weather Top

    Today, 19 September, Wednesday

    Time Temperature Precipitation Wind Pressure Humidity
    00:00 +20°C° 0.1 mm 0 mps 683 mmHg 97%
    01:00 +19°C° 0 mm 0 mps 683 mmHg 98%
    02:00 +19°C° 0.2 mm 0 mps 683 mmHg 98%
    03:00 +19°C° 0.2 mm 0 mps 682 mmHg 98%
    04:00 +19°C° 0.2 mm 0 mps 682 mmHg 98%
    05:00 +19°C° 0.1 mm 0 mps 683 mmHg 97%
    06:00 +20°C° 0.1 mm 0 mps 683 mmHg 96%
    07:00 +21°C° 0 mm 0 mps 684 mmHg 93%
    08:00 +24°C° 0.1 mm 0 mps 684 mmHg 80%
    09:00 +26°C° 0.1 mm 0 mps 685 mmHg 67%
    10:00 +29°C° 0.1 mm 0 mps 686 mmHg 54%
    11:00 +29°C° 1.6 mm 0 mps 685 mmHg 57%
    12:00 +30°C° 1.6 mm 0 mps 684 mmHg 61%
    13:00 +28°C° 0 mm 0 mps 684 mmHg 67%
    14:00 +28°C° 1.6 mm 0 mps 684 mmHg 69%
    15:00 +27°C° 1.6 mm 0 mps 683 mmHg 72%
    16:00 +27°C° 1.6 mm 0 mps 683 mmHg 74%
    17:00 +25°C° 0.6 mm 0 mps 682 mmHg 80%
    18:00 +23°C° 0.6 mm 0 mps 682 mmHg 86%
    19:00 +21°C° 0.6 mm 0 mps 682 mmHg 92%
    20:00 +22°C° 0.1 mm 1 mps 682 mmHg 93%
    21:00 +22°C° 0.1 mm 1 mps 683 mmHg 94%
    22:00 +22°C° 0.1 mm 1 mps 683 mmHg 95%
    23:00 +21°C° 0 mm 1 mps 683 mmHg 95%

    Tomorrow, 20 September, Thursday

    Time Temperature Precipitation Wind Pressure Humidity
    00:00 +21°C° 0 mm 1 mps 682 mmHg 96%
    01:00 +21°C° 0 mm 1 mps 682 mmHg 96%
    02:00 +20°C° 0 mm 1 mps 682 mmHg 96%
    03:00 +20°C° 0 mm 1 mps 682 mmHg 96%
    04:00 +20°C° 0 mm 1 mps 682 mmHg 96%
    05:00 +19°C° 0 mm 0 mps 682 mmHg 93%
    06:00 +19°C° 0 mm 0 mps 683 mmHg 91%
    07:00 +20°C° 0 mm 0 mps 683 mmHg 88%
    08:00 +23°C° 0 mm 0 mps 684 mmHg 75%
    09:00 +26°C° 0 mm 0 mps 684 mmHg 61%
    10:00 +29°C° 0 mm 0 mps 685 mmHg 48%
    11:00 +30°C° 0 mm 0 mps 685 mmHg 44%
    12:00 +33°C° 0 mm 1 mps 684 mmHg 39%
    13:00 +34°C° 0 mm 1 mps 684 mmHg 35%
    14:00 +33°C° 0 mm 1 mps 684 mmHg 38%
    15:00 +32°C° 0 mm 1 mps 683 mmHg 41%
    16:00 +31°C° 0 mm 1 mps 682 mmHg 45%
    17:00 +29°C° 0 mm 1 mps 682 mmHg 57%
    18:00 +26°C° 0 mm 1 mps 682 mmHg 70%
    19:00 +23°C° 0 mm 1 mps 682 mmHg 82%
    20:00 +23°C° 0 mm 1 mps 682 mmHg 85%
    21:00 +22°C° 0 mm 1 mps 683 mmHg 88%
    22:00 +22°C° 0 mm 1 mps 683 mmHg 91%
    23:00 +22°C° 0 mm 1 mps 683 mmHg 92%

    Day after tomorrow, 21 September, Friday

    Time Temperature Precipitation Wind Pressure Humidity
    00:00 +21°C° 0 mm 1 mps 683 mmHg 93%
    01:00 +21°C° 0 mm 1 mps 682 mmHg 93%
    02:00 +21°C° 0 mm 1 mps 682 mmHg 93%
    03:00 +20°C° 0 mm 1 mps 682 mmHg 93%
    04:00 +20°C° 0 mm 1 mps 682 mmHg 93%
    05:00 +19°C° 0 mm 0 mps 682 mmHg 90%
    06:00 +20°C° 0 mm 0 mps 683 mmHg 87%
    07:00 +21°C° 0 mm 0 mps 683 mmHg 84%
    08:00 +24°C° 0 mm 0 mps 684 mmHg 72%
    09:00 +27°C° 0 mm 0 mps 685 mmHg 60%
    10:00 +30°C° 0 mm 0 mps 685 mmHg 48%
    11:00 +30°C° 0.2 mm 0 mps 685 mmHg 48%
    12:00 +32°C° 0.2 mm 1 mps 684 mmHg 49%
    13:00 +33°C° 0.2 mm 1 mps 684 mmHg 49%
    14:00 +31°C° 0.8 mm 1 mps 683 mmHg 57%
    15:00 +30°C° 0.8 mm 1 mps 682 mmHg 65%
    16:00 +28°C° 0.8 mm 1 mps 682 mmHg 74%
    17:00 +26°C° 0.8 mm 1 mps 682 mmHg 79%
    18:00 +25°C° 0.8 mm 1 mps 682 mmHg 84%
    19:00 +23°C° 0.8 mm 1 mps 682 mmHg 89%
    20:00 +23°C° 0 mm 1 mps 683 mmHg 91%
    21:00 +22°C° 0 mm 1 mps 683 mmHg 92%
    22:00 +20°C° 0 mm 0 mps 684 mmHg 93%
    23:00 +20°C° 0.2 mm 0 mps 683 mmHg 94%

    22 September, Saturday

    Time Temperature Precipitation Wind Pressure Humidity
    00:00 +19°C° 0.2 mm 0 mps 683 mmHg 94%
    01:00 +19°C° 0.2 mm 0 mps 683 mmHg 94%
    02:00 +19°C° 0.1 mm 0 mps 682 mmHg 93%
    03:00 +18°C° 0.1 mm 0 mps 682 mmHg 93%
    04:00 +20°C° 0.1 mm 1 mps 682 mmHg 92%
    05:00 +19°C° 0.1 mm 0 mps 683 mmHg 89%
    06:00 +19°C° 0.1 mm 0 mps 683 mmHg 87%
    07:00 +20°C° 0.1 mm 0 mps 684 mmHg 84%
    08:00 +23°C° 0.1 mm 0 mps 685 mmHg 72%
    09:00 +26°C° 0.1 mm 0 mps 685 mmHg 60%
    10:00 +29°C° 0.1 mm 0 mps 686 mmHg 49%
    11:00 +29°C° 0.4 mm 0 mps 686 mmHg 50%
    12:00 +31°C° 0.4 mm 1 mps 685 mmHg 51%
    13:00 +32°C° 0.4 mm 1 mps 684 mmHg 52%
    14:00 +30°C° 0.9 mm 1 mps 683 mmHg 62%
    15:00 +28°C° 0.9 mm 1 mps 683 mmHg 72%
    16:00 +26°C° 0.9 mm 1 mps 682 mmHg 82%
    17:00 +25°C° 0.7 mm 1 mps 682 mmHg 86%
    18:00 +24°C° 0.7 mm 1 mps 683 mmHg 90%
    19:00 +21°C° 0.7 mm 0 mps 683 mmHg 94%
    20:00 +20°C° 0.6 mm 0 mps 683 mmHg 95%
    21:00 +20°C° 0.6 mm 0 mps 684 mmHg 95%
    22:00 +20°C° 0.6 mm 0 mps 684 mmHg 95%
    23:00 +20°C° 0.1 mm 0 mps 684 mmHg 96%

    23 September, Sunday

    Time Temperature Precipitation Wind Pressure Humidity
    00:00 +19°C° 0.1 mm 0 mps 684 mmHg 96%
    01:00 +19°C° 0.1 mm 0 mps 683 mmHg 96%
    02:00 +19°C° 0.1 mm 0 mps 683 mmHg 96%
    03:00 +19°C° 0.1 mm 0 mps 683 mmHg 96%
    04:00 +19°C° 0.1 mm 0 mps 683 mmHg 96%
    05:00 +19°C° 0 mm 0 mps 683 mmHg 94%
    06:00 +20°C° 0 mm 0 mps 684 mmHg 91%
    07:00 +21°C° 0 mm 0 mps 685 mmHg 89%
    08:00 +23°C° 0 mm 0 mps 685 mmHg 79%
    09:00 +25°C° 0 mm 0 mps 686 mmHg 68%
    10:00 +28°C° 0 mm 0 mps 686 mmHg 58%
    11:00 +30°C° 1.2 mm 1 mps 686 mmHg 58%
    12:00 +31°C° 1.2 mm 1 mps 685 mmHg 57%
    13:00 +31°C° 1.2 mm 1 mps 684 mmHg 57%
    14:00 +30°C° 1.8 mm 1 mps 684 mmHg 63%
    15:00 +29°C° 1.8 mm 1 mps 683 mmHg 68%
    16:00 +28°C° 1.8 mm 1 mps 682 mmHg 74%
    17:00 +26°C° 1.5 mm 1 mps 683 mmHg 80%
    18:00 +22°C° 1.5 mm 0 mps 683 mmHg 87%
    19:00 +21°C° 1.5 mm 0 mps 683 mmHg 93%
    20:00 +20°C° 1.9 mm 0 mps 683 mmHg 94%
    21:00 +20°C° 1.9 mm 0 mps 684 mmHg 95%
    22:00 +20°C° 1.9 mm 0 mps 684 mmHg 96%
    23:00 +19°C° 1.5 mm 0 mps 684 mmHg 97%

    24 September, Monday

    Time Temperature Precipitation Wind Pressure Humidity
    00:00 +19°C° 1.5 mm 0 mps 683 mmHg 97%
    01:00 +19°C° 1.5 mm 0 mps 683 mmHg 97%
    02:00 +19°C° 0.2 mm 0 mps 683 mmHg 97%
    03:00 +18°C° 0.2 mm 0 mps 683 mmHg 98%
    04:00 +18°C° 0.2 mm 0 mps 683 mmHg 98%
    05:00 +19°C° 0.1 mm 0 mps 683 mmHg 96%
    06:00 +19°C° 0.1 mm 0 mps 683 mmHg 95%
    07:00 +20°C° 0.1 mm 0 mps 684 mmHg 94%
    08:00 +23°C° 0 mm 0 mps 684 mmHg 81%
    09:00 +26°C° 0 mm 0 mps 685 mmHg 68%
    10:00 +28°C° 0 mm 0 mps 685 mmHg 55%
    11:00 +29°C° 0.8 mm 0 mps 685 mmHg 58%
    12:00 +31°C° 0.8 mm 1 mps 684 mmHg 61%
    13:00 +31°C° 0.8 mm 1 mps 683 mmHg 64%
    14:00 +28°C° 1.1 mm 0 mps 683 mmHg 66%
    15:00 +28°C° 1.1 mm 0 mps 683 mmHg 68%
    16:00 +27°C° 1.1 mm 0 mps 682 mmHg 69%
    17:00 +25°C° 0.8 mm 0 mps 682 mmHg 76%
    18:00 +23°C° 0.8 mm 0 mps 682 mmHg 83%
    19:00 +21°C° 0.8 mm 0 mps 683 mmHg 90%
    20:00 +20°C° 0.2 mm 0 mps 683 mmHg 91%
    21:00 +20°C° 0.2 mm 0 mps 683 mmHg 93%
    22:00 +20°C° 0.2 mm 0 mps 684 mmHg 95%
    23:00 +19°C° 0.1 mm 0 mps 683 mmHg 95%
    Show more